iso_date,epoch_date,Year,Hour,Min,DOY,POS_DOY,Lat,Lon,BP,Ts,Ta,has_bp,has_ts,has_ta,BuoyID,Buoy_Type,Buoy_Owner,Logistics,Hemisphere
2019-04-20T06:00:00Z,1555740000,2019,6,0,110.25,110.25,-64.007,30.083,-999.00,35.95,-999.0,no,yes,no,300234066615920,SVP3GI,AOML,THOMAS_THOMPSON,South
2019-04-20T07:00:28Z,1555743629,2019,7,0,110.292,110.292,-64.009,30.092,-999.00,35.95,-999.0,no,yes,no,300234066615920,SVP3GI,AOML,THOMAS_THOMPSON,South
2019-04-20T07:59:31Z,1555747171,2019,8,0,110.333,110.333,-64.012,30.104,-999.00,35.95,-999.0,no,yes,no,300234066615920,SVP3GI,AOML,THOMAS_THOMPSON,South
2019-04-20T09:00:00Z,1555750800,2019,9,0,110.375,110.375,-64.012,30.117,-999.00,35.95,-999.0,no,yes,no,300234066615920,SVP3GI,AOML,THOMAS_THOMPSON,South
2019-04-20T10:00:28Z,1555754429,2019,10,0,110.417,110.417,-64.013,30.129,-999.00,35.95,-999.0,no,yes,no,300234066615920,SVP3GI,AOML,THOMAS_THOMPSON,South
2019-04-20T10:59:31Z,1555757971,2019,11,0,110.458,110.458,-64.011,30.14,-999.00,35.95,-999.0,no,yes,no,300234066615920,SVP3GI,AOML,THOMAS_THOMPSON,South
2019-04-20T12:00:00Z,1555761600,2019,12,0,110.5,110.5,-64.01,30.147,-999.00,35.95,-999.0,no,yes,no,300234066615920,SVP3GI,AOML,THOMAS_THOMPSON,South
2019-04-20T13:00:28Z,1555765229,2019,13,0,110.542,110.542,-64.009,30.151,-999.00,35.95,-999.0,no,yes,no,300234066615920,SVP3GI,AOML,THOMAS_THOMPSON,South
2019-04-20T13:59:31Z,1555768771,2019,14,0,110.583,110.583,-64.008,30.153,-999.00,35.95,-999.0,no,yes,no,300234066615920,SVP3GI,AOML,THOMAS_THOMPSON,South
2019-04-20T15:00:00Z,1555772400,2019,15,0,110.625,110.625,-64.009,30.155,-999.00,35.95,-999.0,no,yes,no,300234066615920,SVP3GI,AOML,THOMAS_THOMPSON,South
2019-04-20T16:00:28Z,1555776029,2019,16,0,110.667,110.667,-64.01,30.157,-999.00,35.95,-999.0,no,yes,no,300234066615920,SVP3GI,AOML,THOMAS_THOMPSON,South
2019-04-20T16:59:31Z,1555779571,2019,17,0,110.708,110.708,-64.012,30.156,-999.00,35.95,-999.0,no,yes,no,300234066615920,SVP3GI,AOML,THOMAS_THOMPSON,South
2019-04-20T18:00:00Z,1555783200,2019,18,0,110.75,110.75,-64.014,30.16,-999.00,35.95,-999.0,no,yes,no,300234066615920,SVP3GI,AOML,THOMAS_THOMPSON,South
2019-04-20T19:00:28Z,1555786829,2019,19,0,110.792,110.792,-64.017,30.164,-999.00,35.95,-999.0,no,yes,no,300234066615920,SVP3GI,AOML,THOMAS_THOMPSON,South
2019-04-20T19:59:31Z,1555790371,2019,20,0,110.833,110.833,-64.022,30.17,-999.00,35.95,-999.0,no,yes,no,300234066615920,SVP3GI,AOML,THOMAS_THOMPSON,South
2019-04-20T21:00:00Z,1555794000,2019,21,0,110.875,110.875,-64.026,30.181,-999.00,35.95,-999.0,no,yes,no,300234066615920,SVP3GI,AOML,THOMAS_THOMPSON,South
2019-04-20T22:00:28Z,1555797629,2019,22,0,110.917,110.917,-64.028,30.197,-999.00,35.95,-999.0,no,yes,no,300234066615920,SVP3GI,AOML,THOMAS_THOMPSON,South
2019-04-20T22:59:31Z,1555801171,2019,23,0,110.958,110.958,-64.028,30.213,-999.00,35.95,-999.0,no,yes,no,300234066615920,SVP3GI,AOML,THOMAS_THOMPSON,South
2019-04-21T00:00:00Z,1555804800,2019,0,0,111.0,111.0,-64.026,30.228,-999.00,35.95,-999.0,no,yes,no,300234066615920,SVP3GI,AOML,THOMAS_THOMPSON,South
2019-04-21T01:00:28Z,1555808429,2019,1,0,111.042,111.042,-64.022,30.237,-999.00,35.95,-999.0,no,yes,no,300234066615920,SVP3GI,AOML,THOMAS_THOMPSON,South
2019-04-21T01:59:31Z,1555811971,2019,2,0,111.083,111.083,-64.02,30.241,-999.00,35.95,-999.0,no,yes,no,300234066615920,SVP3GI,AOML,THOMAS_THOMPSON,South
2019-04-21T03:00:00Z,1555815600,2019,3,0,111.125,111.125,-64.019,30.243,-999.00,35.95,-999.0,no,yes,no,300234066615920,SVP3GI,AOML,THOMAS_THOMPSON,South
2019-04-21T04:00:28Z,1555819229,2019,4,0,111.167,111.167,-64.02,30.241,-999.00,35.95,-999.0,no,yes,no,300234066615920,SVP3GI,AOML,THOMAS_THOMPSON,South
2019-04-21T04:59:31Z,1555822771,2019,5,0,111.208,111.208,-64.021,30.239,-999.00,35.95,-999.0,no,yes,no,300234066615920,SVP3GI,AOML,THOMAS_THOMPSON,South
2019-04-21T06:00:00Z,1555826400,2019,6,0,111.25,111.25,-64.025,30.237,-999.00,35.95,-999.0,no,yes,no,300234066615920,SVP3GI,AOML,THOMAS_THOMPSON,South
2019-04-21T07:00:28Z,1555830029,2019,7,0,111.292,111.292,-64.029,30.242,-999.00,35.95,-999.0,no,yes,no,300234066615920,SVP3GI,AOML,THOMAS_THOMPSON,South
2019-04-21T07:59:31Z,1555833571,2019,8,0,111.333,111.333,-64.034,30.251,-999.00,35.95,-999.0,no,yes,no,300234066615920,SVP3GI,AOML,THOMAS_THOMPSON,South
2019-04-21T09:00:00Z,1555837200,2019,9,0,111.375,111.375,-64.038,30.261,-999.00,35.95,-999.0,no,yes,no,300234066615920,SVP3GI,AOML,THOMAS_THOMPSON,South
2019-04-21T10:00:28Z,1555840829,2019,10,0,111.417,111.417,-64.042,30.272,-999.00,35.95,-999.0,no,yes,no,300234066615920,SVP3GI,AOML,THOMAS_THOMPSON,South
2019-04-21T10:59:31Z,1555844371,2019,11,0,111.458,111.458,-64.045,30.286,-999.00,35.95,-999.0,no,yes,no,300234066615920,SVP3GI,AOML,THOMAS_THOMPSON,South
2019-04-21T12:00:00Z,1555848000,2019,12,0,111.5,111.5,-64.045,30.299,-999.00,35.95,-999.0,no,yes,no,300234066615920,SVP3GI,AOML,THOMAS_THOMPSON,South
2019-04-21T13:00:28Z,1555851629,2019,13,0,111.542,111.542,-64.044,30.311,-999.00,35.95,-999.0,no,yes,no,300234066615920,SVP3GI,AOML,THOMAS_THOMPSON,South
2019-04-21T13:59:31Z,1555855171,2019,14,0,111.583,111.583,-64.043,30.319,-999.00,35.95,-999.0,no,yes,no,300234066615920,SVP3GI,AOML,THOMAS_THOMPSON,South
2019-04-21T15:00:00Z,1555858800,2019,15,0,111.625,111.625,-64.041,30.327,-999.00,35.95,-999.0,no,yes,no,300234066615920,SVP3GI,AOML,THOMAS_THOMPSON,South
2019-04-21T16:00:28Z,1555862429,2019,16,0,111.667,111.667,-64.039,30.332,-999.00,35.95,-999.0,no,yes,no,300234066615920,SVP3GI,AOML,THOMAS_THOMPSON,South
2019-04-21T16:59:31Z,1555865971,2019,17,0,111.708,111.708,-64.039,30.336,-999.00,35.95,-999.0,no,yes,no,300234066615920,SVP3GI,AOML,THOMAS_THOMPSON,South
2019-04-21T18:00:00Z,1555869600,2019,18,0,111.75,111.75,-64.04,30.344,-999.00,35.95,-999.0,no,yes,no,300234066615920,SVP3GI,AOML,THOMAS_THOMPSON,South
2019-04-21T19:00:28Z,1555873229,2019,19,0,111.792,111.792,-64.041,30.352,-999.00,35.95,-999.0,no,yes,no,300234066615920,SVP3GI,AOML,THOMAS_THOMPSON,South
2019-04-21T19:59:31Z,1555876771,2019,20,0,111.833,111.833,-64.042,30.363,-999.00,35.95,-999.0,no,yes,no,300234066615920,SVP3GI,AOML,THOMAS_THOMPSON,South
2019-04-21T21:00:00Z,1555880400,2019,21,0,111.875,111.875,-64.042,30.376,-999.00,35.95,-999.0,no,yes,no,300234066615920,SVP3GI,AOML,THOMAS_THOMPSON,South
2019-04-21T22:00:28Z,1555884029,2019,22,0,111.917,111.917,-64.042,30.389,-999.00,35.95,-999.0,no,yes,no,300234066615920,SVP3GI,AOML,THOMAS_THOMPSON,South
2019-04-21T22:59:31Z,1555887571,2019,23,0,111.958,111.958,-64.041,30.401,-999.00,35.95,-999.0,no,yes,no,300234066615920,SVP3GI,AOML,THOMAS_THOMPSON,South
2019-04-22T00:00:00Z,1555891200,2019,0,0,112.0,112.0,-64.04,30.412,-999.00,35.95,-999.0,no,yes,no,300234066615920,SVP3GI,AOML,THOMAS_THOMPSON,South
2019-04-22T01:00:28Z,1555894829,2019,1,0,112.042,112.042,-64.039,30.426,-999.00,35.95,-999.0,no,yes,no,300234066615920,SVP3GI,AOML,THOMAS_THOMPSON,South
2019-04-22T01:59:31Z,1555898371,2019,2,0,112.083,112.083,-64.036,30.439,-999.00,35.95,-999.0,no,yes,no,300234066615920,SVP3GI,AOML,THOMAS_THOMPSON,South
2019-04-22T03:00:00Z,1555902000,2019,3,0,112.125,112.125,-64.034,30.451,-999.00,35.95,-999.0,no,yes,no,300234066615920,SVP3GI,AOML,THOMAS_THOMPSON,South
2019-04-22T04:00:28Z,1555905629,2019,4,0,112.167,112.167,-64.031,30.461,-999.00,35.95,-999.0,no,yes,no,300234066615920,SVP3GI,AOML,THOMAS_THOMPSON,South
2019-04-22T04:59:31Z,1555909171,2019,5,0,112.208,112.208,-64.028,30.475,-999.00,35.95,-999.0,no,yes,no,300234066615920,SVP3GI,AOML,THOMAS_THOMPSON,South
2019-04-22T06:00:00Z,1555912800,2019,6,0,112.25,112.25,-64.02,30.49,-999.00,35.95,-999.0,no,yes,no,300234066615920,SVP3GI,AOML,THOMAS_THOMPSON,South
2019-04-22T07:00:28Z,1555916429,2019,7,0,112.292,112.292,-64.014,30.497,-999.00,35.95,-999.0,no,yes,no,300234066615920,SVP3GI,AOML,THOMAS_THOMPSON,South
2019-04-22T07:59:31Z,1555919971,2019,8,0,112.333,112.333,-64.008,30.503,-999.00,35.95,-999.0,no,yes,no,300234066615920,SVP3GI,AOML,THOMAS_THOMPSON,South
2019-04-22T09:00:00Z,1555923600,2019,9,0,112.375,112.375,-64.001,30.508,-999.00,35.95,-999.0,no,yes,no,300234066615920,SVP3GI,AOML,THOMAS_THOMPSON,South
2019-04-22T10:00:28Z,1555927229,2019,10,0,112.417,112.417,-63.995,30.508,-999.00,35.95,-999.0,no,yes,no,300234066615920,SVP3GI,AOML,THOMAS_THOMPSON,South
2019-04-22T10:59:31Z,1555930771,2019,11,0,112.458,112.458,-63.99,30.505,-999.00,35.95,-999.0,no,yes,no,300234066615920,SVP3GI,AOML,THOMAS_THOMPSON,South
2019-04-22T12:00:00Z,1555934400,2019,12,0,112.5,112.5,-63.988,30.502,-999.00,35.95,-999.0,no,yes,no,300234066615920,SVP3GI,AOML,THOMAS_THOMPSON,South
2019-04-22T13:00:28Z,1555938029,2019,13,0,112.542,112.542,-63.989,30.503,-999.00,35.95,-999.0,no,yes,no,300234066615920,SVP3GI,AOML,THOMAS_THOMPSON,South
2019-04-22T13:59:31Z,1555941571,2019,14,0,112.583,112.583,-63.992,30.507,-999.00,35.95,-999.0,no,yes,no,300234066615920,SVP3GI,AOML,THOMAS_THOMPSON,South
2019-04-22T15:00:00Z,1555945200,2019,15,0,112.625,112.625,-63.996,30.517,-999.00,35.95,-999.0,no,yes,no,300234066615920,SVP3GI,AOML,THOMAS_THOMPSON,South
2019-04-22T16:00:28Z,1555948829,2019,16,0,112.667,112.667,-63.998,30.536,-999.00,35.95,-999.0,no,yes,no,300234066615920,SVP3GI,AOML,THOMAS_THOMPSON,South
2019-04-22T16:59:31Z,1555952371,2019,17,0,112.708,112.708,-63.996,30.556,-999.00,35.95,-999.0,no,yes,no,300234066615920,SVP3GI,AOML,THOMAS_THOMPSON,South
2019-04-22T18:00:00Z,1555956000,2019,18,0,112.75,112.75,-63.994,30.573,-999.00,35.95,-999.0,no,yes,no,300234066615920,SVP3GI,AOML,THOMAS_THOMPSON,South
2019-04-22T19:00:28Z,1555959629,2019,19,0,112.792,112.792,-63.99,30.589,-999.00,35.95,-999.0,no,yes,no,300234066615920,SVP3GI,AOML,THOMAS_THOMPSON,South
2019-04-22T19:59:31Z,1555963171,2019,20,0,112.833,112.833,-63.985,30.603,-999.00,35.95,-999.0,no,yes,no,300234066615920,SVP3GI,AOML,THOMAS_THOMPSON,South
2019-04-22T21:00:00Z,1555966800,2019,21,0,112.875,112.875,-63.979,30.614,-999.00,35.95,-999.0,no,yes,no,300234066615920,SVP3GI,AOML,THOMAS_THOMPSON,South
2019-04-22T22:00:28Z,1555970429,2019,22,0,112.917,112.917,-63.973,30.618,-999.00,35.95,-999.0,no,yes,no,300234066615920,SVP3GI,AOML,THOMAS_THOMPSON,South
2019-04-22T22:59:31Z,1555973971,2019,23,0,112.958,112.958,-63.97,30.619,-999.00,35.95,-999.0,no,yes,no,300234066615920,SVP3GI,AOML,THOMAS_THOMPSON,South
2019-04-23T00:00:00Z,1555977600,2019,0,0,113.0,113.0,-63.969,30.618,-999.00,35.95,-999.0,no,yes,no,300234066615920,SVP3GI,AOML,THOMAS_THOMPSON,South
2019-04-23T01:00:28Z,1555981229,2019,1,0,113.042,113.042,-63.971,30.618,-999.00,35.95,-999.0,no,yes,no,300234066615920,SVP3GI,AOML,THOMAS_THOMPSON,South
2019-04-23T01:59:31Z,1555984771,2019,2,0,113.083,113.083,-63.974,30.623,-999.00,35.95,-999.0,no,yes,no,300234066615920,SVP3GI,AOML,THOMAS_THOMPSON,South
2019-04-23T03:00:00Z,1555988400,2019,3,0,113.125,113.125,-63.976,30.632,-999.00,35.95,-999.0,no,yes,no,300234066615920,SVP3GI,AOML,THOMAS_THOMPSON,South
2019-04-23T04:00:28Z,1555992029,2019,4,0,113.167,113.167,-63.981,30.645,-999.00,35.95,-999.0,no,yes,no,300234066615920,SVP3GI,AOML,THOMAS_THOMPSON,South
2019-04-23T04:59:31Z,1555995571,2019,5,0,113.208,113.208,-63.984,30.662,-999.00,35.95,-999.0,no,yes,no,300234066615920,SVP3GI,AOML,THOMAS_THOMPSON,South
2019-04-23T06:00:00Z,1555999200,2019,6,0,113.25,113.25,-63.984,30.682,-999.00,35.95,-999.0,no,yes,no,300234066615920,SVP3GI,AOML,THOMAS_THOMPSON,South
2019-04-23T07:00:28Z,1556002829,2019,7,0,113.292,113.292,-63.983,30.699,-999.00,35.95,-999.0,no,yes,no,300234066615920,SVP3GI,AOML,THOMAS_THOMPSON,South
2019-04-23T07:59:31Z,1556006371,2019,8,0,113.333,113.333,-63.979,30.711,-999.00,35.95,-999.0,no,yes,no,300234066615920,SVP3GI,AOML,THOMAS_THOMPSON,South
2019-04-23T09:00:00Z,1556010000,2019,9,0,113.375,113.375,-63.976,30.721,-999.00,35.95,-999.0,no,yes,no,300234066615920,SVP3GI,AOML,THOMAS_THOMPSON,South
2019-04-23T10:00:28Z,1556013629,2019,10,0,113.417,113.417,-63.973,30.727,-999.00,35.95,-999.0,no,yes,no,300234066615920,SVP3GI,AOML,THOMAS_THOMPSON,South
2019-04-23T10:59:31Z,1556017171,2019,11,0,113.458,113.458,-63.97,30.731,-999.00,35.95,-999.0,no,yes,no,300234066615920,SVP3GI,AOML,THOMAS_THOMPSON,South
2019-04-23T12:00:00Z,1556020800,2019,12,0,113.5,113.5,-63.969,30.733,-999.00,35.95,-999.0,no,yes,no,300234066615920,SVP3GI,AOML,THOMAS_THOMPSON,South
2019-04-23T13:00:28Z,1556024429,2019,13,0,113.542,113.542,-63.97,30.738,-999.00,35.95,-999.0,no,yes,no,300234066615920,SVP3GI,AOML,THOMAS_THOMPSON,South
2019-04-23T13:59:31Z,1556027971,2019,14,0,113.583,113.583,-63.97,30.743,-999.00,35.95,-999.0,no,yes,no,300234066615920,SVP3GI,AOML,THOMAS_THOMPSON,South
2019-04-23T15:00:00Z,1556031600,2019,15,0,113.625,113.625,-63.971,30.75,-999.00,35.95,-999.0,no,yes,no,300234066615920,SVP3GI,AOML,THOMAS_THOMPSON,South
2019-04-23T16:00:28Z,1556035229,2019,16,0,113.667,113.667,-63.973,30.753,-999.00,35.95,-999.0,no,yes,no,300234066615920,SVP3GI,AOML,THOMAS_THOMPSON,South
2019-04-23T16:59:31Z,1556038771,2019,17,0,113.708,113.708,-63.975,30.759,-999.00,35.95,-999.0,no,yes,no,300234066615920,SVP3GI,AOML,THOMAS_THOMPSON,South
2019-04-23T18:00:00Z,1556042400,2019,18,0,113.75,113.75,-63.978,30.769,-999.00,35.95,-999.0,no,yes,no,300234066615920,SVP3GI,AOML,THOMAS_THOMPSON,South
2019-04-23T19:00:28Z,1556046029,2019,19,0,113.792,113.792,-63.981,30.781,-999.00,35.95,-999.0,no,yes,no,300234066615920,SVP3GI,AOML,THOMAS_THOMPSON,South
2019-04-23T19:59:31Z,1556049571,2019,20,0,113.833,113.833,-63.983,30.795,-999.00,35.95,-999.0,no,yes,no,300234066615920,SVP3GI,AOML,THOMAS_THOMPSON,South
2019-04-23T21:00:00Z,1556053200,2019,21,0,113.875,113.875,-63.983,30.811,-999.00,35.95,-999.0,no,yes,no,300234066615920,SVP3GI,AOML,THOMAS_THOMPSON,South
2019-04-23T22:00:28Z,1556056829,2019,22,0,113.917,113.917,-63.981,30.827,-999.00,35.95,-999.0,no,yes,no,300234066615920,SVP3GI,AOML,THOMAS_THOMPSON,South
2019-04-23T22:59:31Z,1556060371,2019,23,0,113.958,113.958,-63.977,30.838,-999.00,35.95,-999.0,no,yes,no,300234066615920,SVP3GI,AOML,THOMAS_THOMPSON,South
2019-04-24T00:00:00Z,1556064000,2019,0,0,114.0,114.0,-63.973,30.845,-999.00,35.95,-999.0,no,yes,no,300234066615920,SVP3GI,AOML,THOMAS_THOMPSON,South
2019-04-24T01:00:28Z,1556067629,2019,1,0,114.042,114.042,-63.968,30.85,-999.00,35.95,-999.0,no,yes,no,300234066615920,SVP3GI,AOML,THOMAS_THOMPSON,South
2019-04-24T01:59:31Z,1556071171,2019,2,0,114.083,114.083,-63.966,30.851,-999.00,35.95,-999.0,no,yes,no,300234066615920,SVP3GI,AOML,THOMAS_THOMPSON,South
2019-04-24T03:00:00Z,1556074800,2019,3,0,114.125,114.125,-63.965,30.851,-999.00,35.95,-999.0,no,yes,no,300234066615920,SVP3GI,AOML,THOMAS_THOMPSON,South
2019-04-24T04:00:28Z,1556078429,2019,4,0,114.167,114.167,-63.966,30.848,-999.00,35.95,-999.0,no,yes,no,300234066615920,SVP3GI,AOML,THOMAS_THOMPSON,South
2019-04-24T04:59:31Z,1556081971,2019,5,0,114.208,114.208,-63.97,30.846,-999.00,35.95,-999.0,no,yes,no,300234066615920,SVP3GI,AOML,THOMAS_THOMPSON,South
2019-04-24T06:00:00Z,1556085600,2019,6,0,114.25,114.25,-63.976,30.849,-999.00,35.95,-999.0,no,yes,no,300234066615920,SVP3GI,AOML,THOMAS_THOMPSON,South
2019-04-24T07:00:28Z,1556089229,2019,7,0,114.292,114.292,-63.98,30.862,-999.00,35.95,-999.0,no,yes,no,300234066615920,SVP3GI,AOML,THOMAS_THOMPSON,South
2019-04-24T07:59:31Z,1556092771,2019,8,0,114.333,114.333,-63.983,30.879,-999.00,35.95,-999.0,no,yes,no,300234066615920,SVP3GI,AOML,THOMAS_THOMPSON,South
2019-04-24T09:00:00Z,1556096400,2019,9,0,114.375,114.375,-63.983,30.9,-999.00,35.95,-999.0,no,yes,no,300234066615920,SVP3GI,AOML,THOMAS_THOMPSON,South
2019-04-24T10:00:28Z,1556100029,2019,10,0,114.417,114.417,-63.981,30.92,-999.00,35.95,-999.0,no,yes,no,300234066615920,SVP3GI,AOML,THOMAS_THOMPSON,South
2019-04-24T10:59:31Z,1556103571,2019,11,0,114.458,114.458,-63.977,30.935,-999.00,35.95,-999.0,no,yes,no,300234066615920,SVP3GI,AOML,THOMAS_THOMPSON,South
2019-04-24T12:00:00Z,1556107200,2019,12,0,114.5,114.5,-63.971,30.946,-999.00,35.95,-999.0,no,yes,no,300234066615920,SVP3GI,AOML,THOMAS_THOMPSON,South
2019-04-24T13:00:28Z,1556110829,2019,13,0,114.542,114.542,-63.966,30.951,-999.00,35.95,-999.0,no,yes,no,300234066615920,SVP3GI,AOML,THOMAS_THOMPSON,South
2019-04-24T13:59:31Z,1556114371,2019,14,0,114.583,114.583,-63.961,30.949,-999.00,35.95,-999.0,no,yes,no,300234066615920,SVP3GI,AOML,THOMAS_THOMPSON,South
2019-04-24T15:00:00Z,1556118000,2019,15,0,114.625,114.625,-63.958,30.946,-999.00,35.95,-999.0,no,yes,no,300234066615920,SVP3GI,AOML,THOMAS_THOMPSON,South
2019-04-24T16:00:28Z,1556121629,2019,16,0,114.667,114.667,-63.959,30.94,-999.00,35.95,-999.0,no,yes,no,300234066615920,SVP3GI,AOML,THOMAS_THOMPSON,South
2019-04-24T16:59:31Z,1556125171,2019,17,0,114.708,114.708,-63.963,30.935,-999.00,35.95,-999.0,no,yes,no,300234066615920,SVP3GI,AOML,THOMAS_THOMPSON,South
2019-04-24T18:00:00Z,1556128800,2019,18,0,114.75,114.75,-63.968,30.941,-999.00,35.95,-999.0,no,yes,no,300234066615920,SVP3GI,AOML,THOMAS_THOMPSON,South
2019-04-24T19:00:28Z,1556132429,2019,19,0,114.792,114.792,-63.972,30.955,-999.00,35.95,-999.0,no,yes,no,300234066615920,SVP3GI,AOML,THOMAS_THOMPSON,South
2019-04-24T19:59:31Z,1556135971,2019,20,0,114.833,114.833,-63.975,30.969,-999.00,35.95,-999.0,no,yes,no,300234066615920,SVP3GI,AOML,THOMAS_THOMPSON,South
2019-04-24T21:00:00Z,1556139600,2019,21,0,114.875,114.875,-63.976,30.992,-999.00,35.95,-999.0,no,yes,no,300234066615920,SVP3GI,AOML,THOMAS_THOMPSON,South
2019-04-24T22:00:28Z,1556143229,2019,22,0,114.917,114.917,-63.973,31.019,-999.00,35.95,-999.0,no,yes,no,300234066615920,SVP3GI,AOML,THOMAS_THOMPSON,South
2019-04-24T22:59:31Z,1556146771,2019,23,0,114.958,114.958,-63.969,31.048,-999.00,35.95,-999.0,no,yes,no,300234066615920,SVP3GI,AOML,THOMAS_THOMPSON,South
2019-04-25T00:00:00Z,1556150400,2019,0,0,115.0,115.0,-63.962,31.073,-999.00,35.95,-999.0,no,yes,no,300234066615920,SVP3GI,AOML,THOMAS_THOMPSON,South
2019-04-25T01:00:28Z,1556154029,2019,1,0,115.042,115.042,-63.951,31.09,-999.00,35.95,-999.0,no,yes,no,300234066615920,SVP3GI,AOML,THOMAS_THOMPSON,South
2019-04-25T01:59:31Z,1556157571,2019,2,0,115.083,115.083,-63.942,31.099,-999.00,35.95,-999.0,no,yes,no,300234066615920,SVP3GI,AOML,THOMAS_THOMPSON,South
2019-04-25T03:00:00Z,1556161200,2019,3,0,115.125,115.125,-63.934,31.105,-999.00,35.95,-999.0,no,yes,no,300234066615920,SVP3GI,AOML,THOMAS_THOMPSON,South
2019-04-25T04:00:28Z,1556164829,2019,4,0,115.167,115.167,-63.928,31.108,-999.00,35.95,-999.0,no,yes,no,300234066615920,SVP3GI,AOML,THOMAS_THOMPSON,South
2019-04-25T04:59:31Z,1556168371,2019,5,0,115.208,115.208,-63.924,31.11,-999.00,35.95,-999.0,no,yes,no,300234066615920,SVP3GI,AOML,THOMAS_THOMPSON,South
2019-04-25T06:00:00Z,1556172000,2019,6,0,115.25,115.25,-63.922,31.112,-999.00,35.95,-999.0,no,yes,no,300234066615920,SVP3GI,AOML,THOMAS_THOMPSON,South
2019-04-25T07:00:28Z,1556175629,2019,7,0,115.292,115.292,-63.924,31.118,-999.00,35.95,-999.0,no,yes,no,300234066615920,SVP3GI,AOML,THOMAS_THOMPSON,South
2019-04-25T07:59:31Z,1556179171,2019,8,0,115.333,115.333,-63.925,31.13,-999.00,35.95,-999.0,no,yes,no,300234066615920,SVP3GI,AOML,THOMAS_THOMPSON,South
2019-04-25T09:00:00Z,1556182800,2019,9,0,115.375,115.375,-63.926,31.147,-999.00,35.95,-999.0,no,yes,no,300234066615920,SVP3GI,AOML,THOMAS_THOMPSON,South
2019-04-25T10:00:28Z,1556186429,2019,10,0,115.417,115.417,-63.925,31.168,-999.00,35.95,-999.0,no,yes,no,300234066615920,SVP3GI,AOML,THOMAS_THOMPSON,South
2019-04-25T10:59:31Z,1556189971,2019,11,0,115.458,115.458,-63.923,31.191,-999.00,35.95,-999.0,no,yes,no,300234066615920,SVP3GI,AOML,THOMAS_THOMPSON,South
2019-04-25T12:00:00Z,1556193600,2019,12,0,115.5,115.5,-63.917,31.212,-999.00,35.95,-999.0,no,yes,no,300234066615920,SVP3GI,AOML,THOMAS_THOMPSON,South
2019-04-25T13:00:28Z,1556197229,2019,13,0,115.542,115.542,-63.91,31.228,-999.00,35.95,-999.0,no,yes,no,300234066615920,SVP3GI,AOML,THOMAS_THOMPSON,South
2019-04-25T13:59:31Z,1556200771,2019,14,0,115.583,115.583,-63.902,31.239,-999.00,35.95,-999.0,no,yes,no,300234066615920,SVP3GI,AOML,THOMAS_THOMPSON,South
2019-04-25T15:00:00Z,1556204400,2019,15,0,115.625,115.625,-63.894,31.245,-999.00,35.95,-999.0,no,yes,no,300234066615920,SVP3GI,AOML,THOMAS_THOMPSON,South
2019-04-25T16:00:28Z,1556208029,2019,16,0,115.667,115.667,-63.888,31.245,-999.00,35.95,-999.0,no,yes,no,300234066615920,SVP3GI,AOML,THOMAS_THOMPSON,South
2019-04-25T16:59:31Z,1556211571,2019,17,0,115.708,115.708,-63.886,31.241,-999.00,35.95,-999.0,no,yes,no,300234066615920,SVP3GI,AOML,THOMAS_THOMPSON,South
2019-04-25T18:00:00Z,1556215200,2019,18,0,115.75,115.75,-63.884,31.242,-999.00,35.95,-999.0,no,yes,no,300234066615920,SVP3GI,AOML,THOMAS_THOMPSON,South
2019-04-25T19:00:28Z,1556218829,2019,19,0,115.792,115.792,-63.885,31.246,-999.00,35.95,-999.0,no,yes,no,300234066615920,SVP3GI,AOML,THOMAS_THOMPSON,South
2019-04-25T19:59:31Z,1556222371,2019,20,0,115.833,115.833,-63.886,31.251,-999.00,35.95,-999.0,no,yes,no,300234066615920,SVP3GI,AOML,THOMAS_THOMPSON,South
2019-04-25T21:00:00Z,1556226000,2019,21,0,115.875,115.875,-63.886,31.261,-999.00,35.95,-999.0,no,yes,no,300234066615920,SVP3GI,AOML,THOMAS_THOMPSON,South
2019-04-25T22:00:28Z,1556229629,2019,22,0,115.917,115.917,-63.885,31.27,-999.00,35.95,-999.0,no,yes,no,300234066615920,SVP3GI,AOML,THOMAS_THOMPSON,South
2019-04-25T22:59:31Z,1556233171,2019,23,0,115.958,115.958,-63.886,31.278,-999.00,35.95,-999.0,no,yes,no,300234066615920,SVP3GI,AOML,THOMAS_THOMPSON,South
2019-04-26T00:00:00Z,1556236800,2019,0,0,116.0,116.0,-63.885,31.292,-999.00,35.95,-999.0,no,yes,no,300234066615920,SVP3GI,AOML,THOMAS_THOMPSON,South
2019-04-26T01:00:28Z,1556240429,2019,1,0,116.042,116.042,-63.883,31.303,-999.00,35.95,-999.0,no,yes,no,300234066615920,SVP3GI,AOML,THOMAS_THOMPSON,South
2019-04-26T01:59:31Z,1556243971,2019,2,0,116.083,116.083,-63.881,31.313,-999.00,35.95,-999.0,no,yes,no,300234066615920,SVP3GI,AOML,THOMAS_THOMPSON,South
2019-04-26T03:00:00Z,1556247600,2019,3,0,116.125,116.125,-63.878,31.325,-999.00,35.95,-999.0,no,yes,no,300234066615920,SVP3GI,AOML,THOMAS_THOMPSON,South
2019-04-26T04:00:28Z,1556251229,2019,4,0,116.167,116.167,-63.875,31.33,-999.00,35.95,-999.0,no,yes,no,300234066615920,SVP3GI,AOML,THOMAS_THOMPSON,South
2019-04-26T04:59:31Z,1556254771,2019,5,0,116.208,116.208,-63.872,31.333,-999.00,35.95,-999.0,no,yes,no,300234066615920,SVP3GI,AOML,THOMAS_THOMPSON,South
2019-04-26T06:00:00Z,1556258400,2019,6,0,116.25,116.25,-63.869,31.335,-999.00,35.95,-999.0,no,yes,no,300234066615920,SVP3GI,AOML,THOMAS_THOMPSON,South
2019-04-26T07:00:28Z,1556262029,2019,7,0,116.292,116.292,-63.866,31.333,-999.00,35.95,-999.0,no,yes,no,300234066615920,SVP3GI,AOML,THOMAS_THOMPSON,South
2019-04-26T07:59:31Z,1556265571,2019,8,0,116.333,116.333,-63.865,31.327,-999.00,35.95,-999.0,no,yes,no,300234066615920,SVP3GI,AOML,THOMAS_THOMPSON,South
2019-04-26T09:00:00Z,1556269200,2019,9,0,116.375,116.375,-63.867,31.321,-999.00,35.95,-999.0,no,yes,no,300234066615920,SVP3GI,AOML,THOMAS_THOMPSON,South
2019-04-26T10:00:28Z,1556272829,2019,10,0,116.417,116.417,-63.87,31.32,-999.00,35.95,-999.0,no,yes,no,300234066615920,SVP3GI,AOML,THOMAS_THOMPSON,South
2019-04-26T10:59:31Z,1556276371,2019,11,0,116.458,116.458,-63.872,31.319,-999.00,35.95,-999.0,no,yes,no,300234066615920,SVP3GI,AOML,THOMAS_THOMPSON,South
2019-04-26T12:00:00Z,1556280000,2019,12,0,116.5,116.5,-63.874,31.319,-999.00,35.95,-999.0,no,yes,no,300234066615920,SVP3GI,AOML,THOMAS_THOMPSON,South
2019-04-26T13:00:28Z,1556283629,2019,13,0,116.542,116.542,-63.877,31.322,-999.00,35.95,-999.0,no,yes,no,300234066615920,SVP3GI,AOML,THOMAS_THOMPSON,South
2019-04-26T13:59:31Z,1556287171,2019,14,0,116.583,116.583,-63.878,31.326,-999.00,35.95,-999.0,no,yes,no,300234066615920,SVP3GI,AOML,THOMAS_THOMPSON,South
2019-04-26T15:00:00Z,1556290800,2019,15,0,116.625,116.625,-63.878,31.331,-999.00,35.95,-999.0,no,yes,no,300234066615920,SVP3GI,AOML,THOMAS_THOMPSON,South
2019-04-26T16:00:28Z,1556294429,2019,16,0,116.667,116.667,-63.876,31.337,-999.00,35.95,-999.0,no,yes,no,300234066615920,SVP3GI,AOML,THOMAS_THOMPSON,South
2019-04-26T16:59:31Z,1556297971,2019,17,0,116.708,116.708,-63.874,31.339,-999.00,35.95,-999.0,no,yes,no,300234066615920,SVP3GI,AOML,THOMAS_THOMPSON,South